COSMOS 1275 DEB, 39965

Orbit data source: Space-Track

COSMOS 1275 DEB, 39965 is space debris in LEO originally from a launch on Thu, 04 Jun 1981 UTC launched from the Plesetsk Missile And Space Complex (PKMTR). Debris objects in space refer to the collection of defunct objects orbiting the Earth. Examples of debris include non-operational satellites, rocket bodies, and fragments generated from explosions, collisions, or faulty payload assembly.

Loading next visibility...
Identifier
39965, 1981-053PB
Orbit
LEO
Country
Flag of CISCIS
Related business
Manufacturer
Unknown
Mission
Spacecraft
Bus & Motor
Unknown
Mass
Unknown
Launch date (UTC)
1981-06-04 (45 years ago)
Launch vehicle
Unknown
Launch site
Plesetsk Missile And Space Complex (PKMTR)
Object type
Payload
Rocket body
Debris
Shape & HBR
Unknown shape, 0.1 m
Radar Cross Section
Small (<0.1 m²)

Expand to show TLE details & history
Last TLE update: 1 day ago

TLE from 1 day ago
0 COSMOS 1275 DEB
1 39965U 81053PB  25352.56184125  .00000657  00000-0  57039-3 0  9993
2 39965  82.9666  28.1960 0045237 134.4272  17.3523 13.84191907581627
Epoch: 2025-12-18T13:29Z
TLE epoch observation values (Epoch: 2025-12-18T13:29:03.084Z)
Latitude
27.87693°
Longitude
-85.20462°
Altitude
920.855 km
Speed
7.41 km/s
True Right ascension
13h 37m 53s
True Declination
27° 44' 18"
Sunlit
Object was in daylight at epoch
Visualization orbit readout
Latitude
Unknown
Longitude
Unknown
Altitude
Unknown
Speed
Unknown
Apparent Right ascension
Unknown
Apparent Declination
Unknown
Sunlit
N/A
Visualization observer readout
Local Sidereal Time
16:03:28
Azimuth
Unknown
Elevation
Unknown
Doppler factor
Unknown
Orbital elements
Apogee altitude
979.324 km
Perigee altitude
913.058 km
Semi-major axis
7,324.328 km
Eccentricity
0.00452
Inclination
82.9666°
RAAN
28.196°
Arg. of periapsis
134.4272°
True anomaly
17.50774°
Mean anomaly
17.3523°
Eccentric anomaly
17.42994°
Mean motion
3.46251 °/min
Orbital period
103.97 mins
BSTAR
0.00057039
Loading maneuver chart data...
Computing Atmospheric mass density...

Documentation

Showing up to 5 results
|